Latest Coastal Weather Observations for Creal Reef

IDQ60701

Issued at 9:15 am EST Saturday 19 April 2014 (issued every 10 minutes, with the page automatically refreshed every 10 minutes)

About coastal observations | Map of coastal stations | Coastal observations for QLD | Marine services | Other Formats
Station Details ID: 200736 Name: CREAL REEF Lat: -20.53 Lon: 150.38 Height: 1.7 m
Data from the previous 72 hours. | See also: Recent months for locations in Queensland
Date/Time
EST
Temp

°C
Wind Pressure Rain
since 9am
mm
Weather Cloud Vis
km
Sea
Height
m
Swell
Dir
 
Speed
knots
Gust
knots
hPa Trend Height
m
Period
s
Dir
19/09:00am 26.0 E 7 8 1016.9 - - - - - - - - -
19/08:30am 26.0 E 7 10 1016.8 - - - - - - - - -
19/08:20am 25.8 ESE 8 - 1016.6 - - - - - - - - -
19/08:00am 25.9 ESE 7 9 1016.7 - - - - - - - - -
19/07:30am 25.8 E 8 9 1016.5 - - - - - - - - -
19/07:20am 25.8 ESE 8 - 1016.3 - - - - - - - - -
19/07:00am 25.7 E 7 8 1016.3 - - - - - - - - -
19/06:30am 25.4 E 7 11 1016.0 - - - - - - - - -
19/06:20am 25.3 E 7 - 1015.8 - - - - - - - - -
19/06:00am 25.2 E 7 9 1015.7 - - - - - - - - -
19/05:30am 25.3 ENE 7 9 1015.4 - - - - - - - - -
19/05:20am 25.3 ENE 8 - 1015.2 - - - - - - - - -
19/05:00am 25.3 E 8 10 1015.1 - - - - - - - - -
19/04:30am 25.3 ENE 7 9 1015.0 - - - - - - - - -
19/04:20am 25.4 ENE 7 - 1014.9 - - - - - - - - -
19/04:00am 25.3 ENE 7 9 1014.9 - - - - - - - - -
19/03:30am 25.3 ENE 8 10 1014.8 - - - - - - - - -
19/03:20am 25.4 ENE 8 - 1014.8 - - - - - - - - -
19/03:00am 25.4 ENE 9 11 1014.9 - - - - - - - - -
19/02:30am 25.4 ENE 9 11 1015.2 - - - - - - - - -
19/02:20am 25.4 NE 10 - 1015.1 - - - - - - - - -
19/02:00am 25.3 ENE 10 13 1015.4 - - - - - - - - -
19/01:30am 25.4 ENE 10 11 1015.5 - - - - - - - - -
19/01:20am 25.4 ENE 10 - 1015.6 - - - - - - - - -
19/01:00am 25.4 ENE 9 11 1015.9 - - - - - - - - -
19/12:30am 25.5 ENE 9 11 1016.1 - - - - - - - - -
19/12:20am 25.4 ENE 10 - 1016.1 - - - - - - - - -
19/12:00am 25.5 ENE 11 13 1016.4 - - - - - - - - -
 
Date/Time
EST
Temp

°C
Wind Pressure Rain
since 9am
mm
Weather Cloud Vis
km
Sea
Height
m
Swell
Dir
 
Speed
knots
Gust
knots
hPa Trend Height
m
Period
s
Dir
18/11:30pm 25.6 ENE 11 13 1016.4 - - - - - - - - -
18/11:20pm 25.6 ENE 11 - 1016.3 - - - - - - - - -
18/11:00pm 25.6 ENE 11 13 1016.5 - - - - - - - - -
18/10:30pm 25.6 E 11 13 1016.6 - - - - - - - - -
18/10:20pm 25.6 E 11 - 1016.5 - - - - - - - - -
18/10:00pm 25.6 E 12 14 1016.5 - - - - - - - - -
18/09:30pm 25.6 E 11 14 1016.5 - - - - - - - - -
18/09:20pm 25.6 ENE 11 - 1016.4 - - - - - - - - -
18/09:00pm 25.6 E 10 12 1016.4 - - - - - - - - -
18/08:30pm 25.6 E 11 13 1016.2 - - - - - - - - -
18/08:20pm 25.5 E 11 - 1016.1 - - - - - - - - -
18/08:00pm 25.4 E 11 13 1016.0 - - - - - - - - -
18/07:30pm 25.5 E 10 12 1015.7 - - - - - - - - -
18/07:20pm 25.6 E 10 - 1015.5 - - - - - - - - -
18/07:00pm 25.5 E 10 11 1015.4 - - - - - - - - -
18/06:30pm 25.6 E 10 11 1015.1 - - - - - - - - -
18/06:20pm 25.7 ESE 10 - 1014.9 - - - - - - - - -
18/06:00pm 25.6 E 9 11 1014.9 - - - - - - - - -
18/05:30pm 25.7 E 8 10 1014.6 - - - - - - - - -
18/05:20pm 25.7 E 8 - 1014.5 - - - - - - - - -
18/05:00pm 25.7 E 8 9 1014.2 - - - - - - - - -
18/04:30pm 25.8 E 10 12 1013.9 - - - - - - - - -
18/04:20pm 25.8 E 9 - 1013.7 - - - - - - - - -
18/04:00pm 25.7 ESE 9 11 1013.8 - - - - - - - - -
18/03:30pm 25.7 ESE 9 10 1013.8 - - - - - - - - -
18/03:20pm 25.6 ESE 9 - 1013.6 - - - - - - - - -
18/03:00pm 25.6 SE 9 11 1013.7 - - - - - - - - -
18/02:30pm 25.7 ESE 9 11 1013.8 - - - - - - - - -
18/02:20pm 25.7 SE 10 - 1013.7 - - - - - - - - -
18/02:00pm 25.7 ESE 9 11 1013.8 - - - - - - - - -
18/01:30pm 25.7 SE 10 12 1014.1 - - - - - - - - -
18/01:20pm 25.7 SE 9 - 1014.1 - - - - - - - - -
18/01:00pm 25.7 ESE 9 11 1014.4 - - - - - - - - -
18/12:30pm 25.8 ESE 10 11 1014.6 - - - - - - - - -
18/12:20pm 25.8 ESE 10 - 1014.7 - - - - - - - - -
18/12:00pm 25.9 ESE 10 13 1014.9 - - - - - - - - -
18/11:30am 25.8 ESE 11 12 1015.3 - - - - - - - - -
18/11:20am 25.8 ESE 10 - 1015.4 - - - - - - - - -
18/11:00am 25.8 ESE 10 11 1015.8 - - - - - - - - -
18/10:30am 25.8 ESE 10 12 1016.0 - - - - - - - - -
18/10:20am 25.8 ESE 10 - 1016.1 - - - - - - - - -
18/10:00am 25.9 ESE 10 11 1016.3 - - - - - - - - -
18/09:30am 25.9 ESE 10 11 1016.4 - - - - - - - - -
18/09:20am 25.8 ESE 9 - 1016.3 - - - - - - - - -
18/09:00am 25.8 ESE 10 13 1016.4 - - - - - - - - -
18/08:30am 25.7 ESE 10 12 1016.3 - - - - - - - - -
18/08:20am 25.7 ESE 10 - 1016.1 - - - - - - - - -
18/08:00am 25.5 E 10 12 1016.1 - - - - - - - - -
18/07:30am 25.5 E 9 11 1016.0 - - - - - - - - -
18/07:20am 25.5 E 9 - 1015.9 - - - - - - - - -
18/07:00am 25.6 E 9 11 1015.9 - - - - - - - - -
18/06:30am 25.4 E 9 12 1015.5 - - - - - - - - -
18/06:20am 25.2 E 9 - 1015.3 - - - - - - - - -
18/06:00am 25.2 E 9 11 1015.3 - - - - - - - - -
18/05:30am 25.2 E 11 12 1015.1 - - - - - - - - -
18/05:20am 25.2 E 11 - 1014.9 - - - - - - - - -
18/05:00am 25.3 E 12 14 1014.8 - - - - - - - - -
18/04:30am 25.2 E 10 13 1014.6 - - - - - - - - -
18/04:20am 25.2 E 11 - 1014.5 - - - - - - - - -
18/04:00am 25.2 E 9 11 1014.6 - - - - - - - - -
18/03:30am 25.3 E 11 13 1014.6 - - - - - - - - -
18/03:20am 25.2 E 11 - 1014.5 - - - - - - - - -
18/03:00am 25.3 E 11 12 1014.7 - - - - - - - - -
18/02:30am 25.3 E 11 13 1015.0 - - - - - - - - -
18/02:20am 25.3 E 10 - 1015.0 - - - - - - - - -
18/02:00am 25.3 ENE 10 13 1015.2 - - - - - - - - -
18/01:30am 25.3 ENE 11 13 1015.3 - - - - - - - - -
18/01:20am 25.4 E 12 - 1015.3 - - - - - - - - -
18/01:00am 25.3 E 13 15 1015.6 - - - - - - - - -
18/12:30am 25.5 E 13 15 1015.9 - - - - - - - - -
18/12:20am 25.4 E 13 - 1016.0 - - - - - - - - -
18/12:00am 25.5 E 12 15 1016.3 - - - - - - - - -
 
Date/Time
EST
Temp

°C
Wind Pressure Rain
since 9am
mm
Weather Cloud Vis
km
Sea
Height
m
Swell
Dir
 
Speed
knots
Gust
knots
hPa Trend Height
m
Period
s
Dir
17/11:30pm 25.5 E 12 15 1016.6 - - - - - - - - -
17/11:20pm 25.5 E 12 - 1016.6 - - - - - - - - -
17/11:00pm 25.6 E 11 13 1016.7 - - - - - - - - -
17/10:30pm 25.5 E 12 14 1016.8 - - - - - - - - -
17/10:20pm 25.5 E 13 - 1016.7 - - - - - - - - -
17/10:00pm 25.5 E 13 14 1016.8 - - - - - - - - -
17/09:30pm 25.6 E 13 15 1016.9 - - - - - - - - -
17/09:20pm 25.6 E 13 - 1016.7 - - - - - - - - -
17/09:00pm 25.6 E 13 15 1016.6 - - - - - - - - -
17/08:30pm 25.6 E 12 15 1016.4 - - - - - - - - -
17/08:20pm 25.6 E 13 - 1016.3 - - - - - - - - -
17/08:00pm 25.6 E 12 14 1016.2 - - - - - - - - -
17/07:30pm 25.6 E 12 14 1015.9 - - - - - - - - -
17/07:20pm 25.6 ESE 12 - 1015.7 - - - - - - - - -
17/07:00pm 25.6 ESE 11 14 1015.4 - - - - - - - - -
17/06:30pm 25.6 ESE 11 13 1015.0 - - - - - - - - -
17/06:20pm 25.6 ESE 11 - 1014.8 - - - - - - - - -
17/06:00pm 25.6 ESE 11 13 1014.8 - - - - - - - - -
17/05:30pm 25.7 ESE 10 12 1014.6 - - - - - - - - -
17/05:20pm 25.7 ESE 10 - 1014.4 - - - - - - - - -
17/05:00pm 25.7 ESE 10 11 1014.4 - - - - - - - - -
17/04:30pm 25.7 ESE 10 13 1014.2 - - - - - - - - -
17/04:20pm 25.7 ESE 11 - 1014.1 - - - - - - - - -
17/04:00pm 25.7 ESE 10 13 1014.2 - - - - - - - - -
17/03:30pm 25.8 SE 10 13 1014.1 - - - - - - - - -
17/03:20pm 25.8 SE 10 - 1014.1 - - - - - - - - -
17/03:00pm 25.8 SE 11 14 1014.2 - - - - - - - - -
17/02:30pm 25.8 SE 11 13 1014.4 - - - - - - - - -
17/02:20pm 25.8 ESE 10 - 1014.3 - - - - - - - - -
17/02:00pm 25.7 ESE 11 13 1014.4 - - - - - - - - -
17/01:30pm 25.7 ESE 10 12 1014.6 - - - - - - - - -
17/01:20pm 25.8 ESE 11 - 1014.7 - - - - - - - - -
17/01:00pm 25.7 ESE 11 14 1015.0 - - - - - - - - -
17/12:30pm 25.7 ESE 11 13 1015.3 - - - - - - - - -
17/12:20pm 25.8 ESE 11 - 1015.4 - - - - - - - - -
17/12:00pm 25.8 ESE 11 14 1015.6 - - - - - - - - -
17/11:30am 25.9 ESE 12 15 1016.1 - - - - - - - - -
17/11:20am 25.9 ESE 13 - 1016.2 - - - - - - - - -
17/11:00am 25.8 ESE 11 14 1016.6 - - - - - - - - -
17/10:30am 25.9 ESE 11 14 1016.9 - - - - - - - - -
17/10:20am 25.9 ESE 11 - 1016.8 - - - - - - - - -
17/10:00am 26.0 ESE 11 13 1017.0 - - - - - - - - -
17/09:30am 26.0 ESE 13 15 1017.0 - - - - - - - - -
17/09:20am 25.9 ESE 13 - 1016.9 - - - - - - - - -
17/09:00am 26.0 E 12 14 1016.9 - - - - - - - - -
17/08:30am 25.9 ESE 13 15 1016.5 - - - - - - - - -
17/08:20am 25.9 ESE 13 - 1016.2 - - - - - - - - -
17/08:00am 25.8 ESE 14 16 1016.2 - - - - - - - - -
17/07:30am 25.9 E 13 15 1015.8 - - - - - - - - -
17/07:20am 26.0 E 13 - 1015.7 - - - - - - - - -
17/07:00am 25.7 ESE 13 15 1015.5 - - - - - - - - -
17/06:30am 25.6 E 12 14 1015.1 - - - - - - - - -
17/06:20am 25.6 ESE 12 - 1014.8 - - - - - - - - -
17/06:00am 25.6 ESE 11 13 1014.7 - - - - - - - - -
17/05:30am 25.6 E 12 14 1014.4 - - - - - - - - -
17/05:20am 25.6 ESE 12 - 1014.3 - - - - - - - - -
17/05:00am 25.6 E 12 14 1014.3 - - - - - - - - -
17/04:30am 25.5 ESE 12 14 1014.2 - - - - - - - - -
17/04:20am 25.5 ESE 12 - 1014.1 - - - - - - - - -
17/04:00am 25.5 E 13 14 1014.1 - - - - - - - - -
17/03:30am 25.5 E 11 13 1014.1 - - - - - - - - -
17/03:20am 25.5 E 11 - 1014.1 - - - - - - - - -
17/03:00am 25.5 ESE 12 15 1014.2 - - - - - - - - -
17/02:30am 25.5 E 12 14 1014.2 - - - - - - - - -
17/02:20am 25.4 E 12 - 1014.1 - - - - - - - - -
17/02:00am 25.4 ESE 12 14 1014.3 - - - - - - - - -
17/01:30am 25.5 ESE 12 14 1014.5 - - - - - - - - -
17/01:20am 25.5 ESE 12 - 1014.5 - - - - - - - - -
17/01:00am 25.5 E 11 13 1014.7 - - - - - - - - -
17/12:30am 25.5 E 12 14 1014.7 - - - - - - - - -
17/12:20am 25.5 E 12 - 1014.6 - - - - - - - - -
17/12:00am 25.5 E 12 14 1014.6 - - - - - - - - -
 
Date/Time
EST
Temp

°C
Wind Pressure Rain
since 9am
mm
Weather Cloud Vis
km
Sea
Height
m
Swell
Dir
 
Speed
knots
Gust
knots
hPa Trend Height
m
Period
s
Dir
16/11:30pm 25.6 E 13 15 1014.7 - - - - - - - - -
16/11:20pm 25.6 E 13 - 1014.6 - - - - - - - - -
16/11:00pm 25.7 E 12 15 1014.8 - - - - - - - - -
16/10:30pm 25.6 E 14 16 1015.0 - - - - - - - - -
16/10:20pm 25.6 E 13 - 1014.9 - - - - - - - - -
16/10:00pm 25.6 E 14 15 1015.0 - - - - - - - - -
16/09:30pm 25.6 E 13 15 1015.1 - - - - - - - - -
16/09:20pm 25.6 E 14 - 1015.0 - - - - - - - - -
16/09:00pm 25.6 E 14 17 1015.0 - - - - - - - - -
16/08:30pm 25.6 E 14 16 1014.8 - - - - - - - - -
16/08:20pm 25.6 ESE 14 - 1014.6 - - - - - - - - -
16/08:00pm 25.6 ESE 13 15 1014.7 - - - - - - - - -
16/07:30pm 25.6 ESE 13 15 1014.4 - - - - - - - - -
16/07:20pm 25.5 ESE 12 - 1014.2 - - - - - - - - -
16/07:00pm 25.6 ESE 12 14 1014.1 - - - - - - - - -
16/06:30pm 25.5 ESE 12 14 1013.7 - - - - - - - - -
16/06:20pm 25.5 ESE 13 - 1013.6 - - - - - - - - -
16/06:00pm 25.6 ESE 12 14 1013.5 - - - - - - - - -
16/05:30pm 25.7 SE 12 14 1013.5 - - - - - - - - -
16/05:20pm 25.7 SE 13 - 1013.3 - - - - - - - - -
16/05:00pm 25.8 SE 13 16 1013.3 - - - - - - - - -
16/04:30pm 25.9 SE 13 15 1013.1 - - - - - - - - -
16/04:20pm 25.8 SE 13 - 1012.9 - - - - - - - - -
16/04:00pm 25.9 SE 12 14 1012.8 - - - - - - - - -
16/03:30pm 25.8 SE 12 14 1012.7 - - - - - - - - -
16/03:20pm 25.8 SE 12 - 1012.7 - - - - - - - - -
16/03:00pm 25.7 SE 12 14 1012.7 - - - - - - - - -
16/02:30pm 25.7 ESE 12 13 1012.8 - - - - - - - - -
16/02:20pm 25.8 ESE 12 - 1012.7 - - - - - - - - -
16/02:00pm 25.8 ESE 12 14 1013.0 - - - - - - - - -
16/01:30pm 25.9 ESE 13 14 1013.3 - - - - - - - - -
16/01:20pm 25.8 ESE 13 - 1013.2 - - - - - - - - -
16/01:00pm 25.8 ESE 13 15 1013.3 - - - - - - - - -
16/12:30pm 25.8 ESE 12 14 1013.8 - - - - - - - - -
16/12:20pm 25.8 ESE 12 - 1013.8 - - - - - - - - -
16/12:00pm 25.9 ESE 12 14 1014.1 - - - - - - - - -
16/11:30am 26.0 E 12 15 1014.5 - - - - - - - - -
16/11:20am 25.9 E 13 - 1014.5 - - - - - - - - -
16/11:00am 26.0 ESE 12 15 1014.6 - - - - - - - - -
16/10:30am 26.0 E 13 15 1014.7 - - - - - - - - -
16/10:20am 26.0 E 14 - 1014.7 - - - - - - - - -
16/10:00am 25.9 E 15 16 1015.1 - - - - - - - - -
16/09:30am 25.9 E 15 17 1015.2 - - - - - - - - -
16/09:20am 25.9 E 14 - 1015.3 - - - - - - - - -

Other Formats:

Comma delimited format used in spreadsheet applications
http://www.bom.gov.au/fwo/IDQ60701/IDQ60701.94371.axf

JavaScript Object Notation format (JSON) in row-major order
http://www.bom.gov.au/fwo/IDQ60701/IDQ60701.94371.json